When you browse on this site, cookies collect data to enhance your experience and personalize the content and advertising you see.
Visit our Privacy Policy to learn more. By continuing to use the site, you agree to this use of cookies and data.
  • în România
  • Lista ţărilor
  • Pe 7 zile
  • Temperatura apei
  • Meteo pe hartă
  • Widget-uri
  • user-avatar
    Intrare

    Meteo pe oră la Kecskemet

    Astăzi, 22 Octombrie, Marţi

    Timp Temperatura Precipitaţii Vânt Presiune Umiditate
    00:00 +20°C° 0 mm 1 m/s 755 mmHg 59%
    01:00 +19°C° 0 mm 1 m/s 755 mmHg 61%
    02:00 +19°C° 0 mm 1 m/s 755 mmHg 61%
    03:00 +18°C° 0 mm 1 m/s 755 mmHg 62%
    04:00 +18°C° 0 mm 1 m/s 755 mmHg 63%
    05:00 +18°C° 0 mm 1 m/s 755 mmHg 62%
    06:00 +18°C° 0 mm 1 m/s 756 mmHg 62%
    07:00 +18°C° 0 mm 1 m/s 756 mmHg 60%
    08:00 +20°C° 0 mm 1 m/s 756 mmHg 55%
    09:00 +22°C° 0 mm 1 m/s 756 mmHg 49%
    10:00 +24°C° 0 mm 1 m/s 757 mmHg 44%
    11:00 +25°C° 0 mm 1 m/s 756 mmHg 42%
    12:00 +26°C° 0 mm 1 m/s 756 mmHg 39%
    13:00 +27°C° 0 mm 1 m/s 756 mmHg 37%
    14:00 +27°C° 0 mm 1 m/s 756 mmHg 39%
    15:00 +26°C° 0 mm 1 m/s 755 mmHg 41%
    16:00 +25°C° 0 mm 1 m/s 755 mmHg 43%
    17:00 +24°C° 0 mm 1 m/s 755 mmHg 45%
    18:00 +23°C° 0 mm 1 m/s 755 mmHg 48%
    19:00 +22°C° 0 mm 1 m/s 756 mmHg 50%
    20:00 +21°C° 0 mm 1 m/s 756 mmHg 51%
    21:00 +21°C° 0 mm 1 m/s 756 mmHg 52%
    22:00 +20°C° 0 mm 1 m/s 756 mmHg 54%
    23:00 +20°C° 0 mm 1 m/s 756 mmHg 55%

    Mâine, 23 Octombrie, Miercuri

    Timp Temperatura Precipitaţii Vânt Presiune Umiditate
    00:00 +19°C° 0 mm 1 m/s 755 mmHg 57%
    01:00 +18°C° 0 mm 2 m/s 755 mmHg 58%
    02:00 +17°C° 0 mm 2 m/s 755 mmHg 60%
    03:00 +17°C° 0 mm 2 m/s 755 mmHg 62%
    04:00 +17°C° 0 mm 2 m/s 755 mmHg 64%
    05:00 +16°C° 0 mm 2 m/s 755 mmHg 65%
    06:00 +16°C° 0 mm 2 m/s 755 mmHg 66%
    07:00 +16°C° 0 mm 2 m/s 755 mmHg 67%
    08:00 +18°C° 0 mm 2 m/s 755 mmHg 59%
    09:00 +21°C° 0 mm 3 m/s 755 mmHg 51%
    10:00 +24°C° 0 mm 3 m/s 755 mmHg 43%
    11:00 +25°C° 0 mm 3 m/s 755 mmHg 39%
    12:00 +26°C° 0 mm 3 m/s 754 mmHg 36%
    13:00 +27°C° 0 mm 3 m/s 754 mmHg 32%
    14:00 +26°C° 0 mm 3 m/s 753 mmHg 34%
    15:00 +25°C° 0 mm 3 m/s 753 mmHg 37%
    16:00 +25°C° 0 mm 2 m/s 753 mmHg 39%
    17:00 +23°C° 0 mm 2 m/s 753 mmHg 43%
    18:00 +21°C° 0 mm 2 m/s 753 mmHg 46%
    19:00 +20°C° 0 mm 3 m/s 753 mmHg 49%
    20:00 +19°C° 0 mm 2 m/s 753 mmHg 51%
    21:00 +19°C° 0 mm 2 m/s 753 mmHg 53%
    22:00 +18°C° 0 mm 2 m/s 753 mmHg 55%
    23:00 +18°C° 0 mm 2 m/s 753 mmHg 55%

    Poimâine, 24 Octombrie, Joi

    Timp Temperatura Precipitaţii Vânt Presiune Umiditate
    00:00 +17°C° 0 mm 2 m/s 753 mmHg 55%
    01:00 +17°C° 0 mm 3 m/s 752 mmHg 55%
    02:00 +16°C° 0 mm 3 m/s 752 mmHg 56%
    03:00 +16°C° 0 mm 3 m/s 752 mmHg 57%
    04:00 +14°C° 0 mm 3 m/s 752 mmHg 58%
    05:00 +14°C° 0 mm 3 m/s 752 mmHg 58%
    06:00 +14°C° 0 mm 3 m/s 752 mmHg 58%
    07:00 +13°C° 0 mm 3 m/s 752 mmHg 59%
    08:00 +17°C° 0 mm 3 m/s 752 mmHg 52%
    09:00 +19°C° 0 mm 3 m/s 752 mmHg 44%
    10:00 +21°C° 0 mm 3 m/s 752 mmHg 37%
    11:00 +24°C° 0 mm 3 m/s 751 mmHg 34%
    12:00 +25°C° 0 mm 3 m/s 751 mmHg 32%
    13:00 +26°C° 0 mm 3 m/s 751 mmHg 29%
    14:00 +26°C° 0 mm 3 m/s 750 mmHg 31%
    15:00 +25°C° 0 mm 3 m/s 750 mmHg 33%
    16:00 +24°C° 0 mm 2 m/s 750 mmHg 35%
    17:00 +21°C° 0 mm 2 m/s 750 mmHg 37%
    18:00 +20°C° 0 mm 2 m/s 750 mmHg 40%
    19:00 +19°C° 0 mm 2 m/s 750 mmHg 42%
    20:00 +18°C° 0 mm 2 m/s 750 mmHg 43%
    21:00 +18°C° 0 mm 2 m/s 750 mmHg 44%
    22:00 +17°C° 0 mm 2 m/s 750 mmHg 45%
    23:00 +17°C° 0 mm 2 m/s 751 mmHg 46%

    25 Octombrie, Vineri

    Timp Temperatura Precipitaţii Vânt Presiune Umiditate
    00:00 +16°C° 0 mm 2 m/s 751 mmHg 47%
    01:00 +16°C° 0 mm 2 m/s 751 mmHg 48%
    02:00 +15°C° 0 mm 2 m/s 751 mmHg 49%
    03:00 +15°C° 0 mm 1 m/s 751 mmHg 51%
    04:00 +15°C° 0 mm 1 m/s 751 mmHg 52%
    05:00 +15°C° 0 mm 1 m/s 752 mmHg 53%
    06:00 +14°C° 0 mm 1 m/s 752 mmHg 54%
    07:00 +14°C° 0 mm 1 m/s 752 mmHg 55%
    08:00 +16°C° 0 mm 1 m/s 753 mmHg 51%
    09:00 +19°C° 0 mm 2 m/s 753 mmHg 47%
    10:00 +21°C° 0 mm 2 m/s 754 mmHg 43%
    11:00 +23°C° 0 mm 2 m/s 754 mmHg 41%
    12:00 +24°C° 0 mm 2 m/s 754 mmHg 39%
    13:00 +25°C° 0 mm 2 m/s 754 mmHg 38%
    14:00 +24°C° 0 mm 2 m/s 754 mmHg 41%
    15:00 +23°C° 0 mm 2 m/s 753 mmHg 44%
    16:00 +21°C° 0 mm 2 m/s 753 mmHg 47%
    17:00 +20°C° 0 mm 2 m/s 754 mmHg 51%
    18:00 +18°C° 0 mm 2 m/s 754 mmHg 56%
    19:00 +17°C° 0 mm 2 m/s 754 mmHg 61%
    20:00 +16°C° 0 mm 1 m/s 754 mmHg 63%
    21:00 +16°C° 0 mm 1 m/s 755 mmHg 64%
    22:00 +15°C° 0 mm 1 m/s 755 mmHg 66%
    23:00 +15°C° 0 mm 1 m/s 755 mmHg 67%

    26 Octombrie, Sâmbătă

    Timp Temperatura Precipitaţii Vânt Presiune Umiditate
    00:00 +14°C° 0 mm 1 m/s 755 mmHg 68%
    01:00 +14°C° 0 mm 1 m/s 755 mmHg 69%
    02:00 +14°C° 0 mm 1 m/s 754 mmHg 70%
    03:00 +13°C° 0 mm 1 m/s 754 mmHg 71%
    04:00 +13°C° 0 mm 1 m/s 754 mmHg 73%
    05:00 +13°C° 0 mm 1 m/s 754 mmHg 75%
    06:00 +13°C° 0 mm 1 m/s 754 mmHg 78%
    07:00 +13°C° 0 mm 1 m/s 755 mmHg 80%
    08:00 +15°C° 0 mm 1 m/s 755 mmHg 72%
    09:00 +17°C° 0 mm 2 m/s 755 mmHg 64%
    10:00 +19°C° 0 mm 2 m/s 755 mmHg 56%
    11:00 +20°C° 0 mm 2 m/s 755 mmHg 51%
    12:00 +21°C° 0 mm 2 m/s 755 mmHg 46%
    13:00 +24°C° 0 mm 2 m/s 754 mmHg 41%
    14:00 +23°C° 0 mm 2 m/s 754 mmHg 43%
    15:00 +21°C° 0 mm 2 m/s 753 mmHg 45%
    16:00 +21°C° 0 mm 1 m/s 753 mmHg 48%
    17:00 +20°C° 0 mm 1 m/s 753 mmHg 51%
    18:00 +19°C° 0 mm 1 m/s 753 mmHg 54%
    19:00 +18°C° 0 mm 1 m/s 753 mmHg 57%
    20:00 +18°C° 0 mm 1 m/s 753 mmHg 59%
    21:00 +16°C° 0 mm 1 m/s 753 mmHg 60%
    22:00 +16°C° 0 mm 2 m/s 753 mmHg 62%
    23:00 +15°C° 0 mm 2 m/s 753 mmHg 65%

    27 Octombrie, Duminică

    Timp Temperatura Precipitaţii Vânt Presiune Umiditate
    00:00 +15°C° 0 mm 2 m/s 753 mmHg 68%
    01:00 +14°C° 0 mm 2 m/s 753 mmHg 70%
    02:00 +14°C° 0 mm 2 m/s 753 mmHg 73%
    03:00 +14°C° 0 mm 2 m/s 753 mmHg 76%
    04:00 +13°C° 0 mm 2 m/s 753 mmHg 79%
    05:00 +13°C° 0 mm 2 m/s 753 mmHg 80%
    06:00 +13°C° 0 mm 2 m/s 753 mmHg 81%
    07:00 +13°C° 0 mm 2 m/s 753 mmHg 82%
    08:00 +14°C° 0 mm 3 m/s 754 mmHg 72%
    09:00 +18°C° 0 mm 3 m/s 754 mmHg 61%
    10:00 +20°C° 0 mm 4 m/s 754 mmHg 51%
    11:00 +20°C° 0 mm 4 m/s 754 mmHg 50%
    12:00 +21°C° 0 mm 4 m/s 754 mmHg 49%
    13:00 +21°C° 0 mm 5 m/s 754 mmHg 47%
    14:00 +20°C° 0 mm 4 m/s 754 mmHg 49%
    15:00 +19°C° 0 mm 4 m/s 754 mmHg 51%
    16:00 +19°C° 0 mm 4 m/s 754 mmHg 53%
    17:00 +18°C° 0 mm 3 m/s 754 mmHg 54%
    18:00 +16°C° 0 mm 3 m/s 755 mmHg 55%
    19:00 +14°C° 0 mm 3 m/s 755 mmHg 56%
    20:00 +14°C° 0 mm 3 m/s 755 mmHg 52%
    21:00 +13°C° 0 mm 3 m/s 755 mmHg 49%
    22:00 +13°C° 0 mm 3 m/s 756 mmHg 45%
    23:00 +12°C° 0 mm 3 m/s 756 mmHg 44%

    28 Octombrie, Luni

    Timp Temperatura Precipitaţii Vânt Presiune Umiditate
    00:00 +13°C° 0 mm 2 m/s 755 mmHg 43%
    01:00 +12°C° 0 mm 2 m/s 755 mmHg 42%
    02:00 +12°C° 0 mm 2 m/s 755 mmHg 41%
    03:00 +12°C° 0 mm 2 m/s 755 mmHg 41%
    04:00 +11°C° 0 mm 1 m/s 755 mmHg 41%
    05:00 +12°C° 0 mm 1 m/s 755 mmHg 41%
    06:00 +12°C° 0 mm 1 m/s 755 mmHg 41%
    07:00 +12°C° 0 mm 1 m/s 755 mmHg 41%
    08:00 +12°C° 0 mm 1 m/s 755 mmHg 42%
    09:00 +12°C° 0 mm 1 m/s 755 mmHg 43%
    10:00 +12°C° 0 mm 1 m/s 755 mmHg 44%
    11:00 +11°C° 0.1 mm 1 m/s 755 mmHg 51%
    12:00 +11°C° 0.1 mm 1 m/s 754 mmHg 57%
    13:00 +10°C° 0.1 mm 1 m/s 754 mmHg 63%
    14:00 +10°C° 0.1 mm 1 m/s 754 mmHg 66%
    15:00 +10°C° 0.1 mm 1 m/s 753 mmHg 69%
    16:00 +10°C° 0.1 mm 1 m/s 753 mmHg 71%
    17:00 +10°C° 0 mm 1 m/s 753 mmHg 72%
    18:00 +10°C° 0 mm 1 m/s 753 mmHg 72%
    19:00 +11°C° 0 mm 1 m/s 753 mmHg 72%
    20:00 +10°C° 0 mm 2 m/s 753 mmHg 71%
    21:00 +10°C° 0 mm 2 m/s 753 mmHg 71%
    22:00 +10°C° 0 mm 2 m/s 753 mmHg 71%
    23:00 +10°C° 0 mm 2 m/s 753 mmHg 71%
    Arată mai mult